| time (UTC) | temp C | wind direction | speed KPH | gust KPH | rain 1hr cm | rain 24hr cm | rain mn cm | humidity % | barometer mb |
| 20260906173015 | 20 | 82 | 3.2 | 12.9 | 0.00 | 0.00 | 0.00 | 83 | 1020.8 |
| 20260906171504 | 20 | 77 | 4.8 | 9.7 | 0.00 | 0.00 | 0.00 | 84 | 1021.1 |
| 20260906170004 | 19 | 50 | 6.4 | 11.3 | 0.00 | 0.00 | 0.00 | 85 | 1021.1 |
| 20260906164502 | 19 | 69 | 6.4 | 12.9 | 0.00 | 0.00 | 0.00 | 86 | 1021.2 |
| 20260906163001 | 19 | 64 | 6.4 | 11.3 | 0.00 | 0.00 | 0.00 | 84 | 1021.3 |
| 20260906161604 | 20 | 51 | 4.8 | 11.3 | 0.00 | 0.00 | 0.00 | 84 | 1021.2 |
| 20260906160059 | 20 | 355 | 3.2 | 9.7 | 0.00 | 0.00 | 0.00 | 84 | 1021.2 |
| 20260906154557 | 20 | 59 | 4.8 | 8.0 | 0.00 | 0.00 | 0.00 | 83 | 1021.2 |
| 20260906153058 | 20 | 52 | 3.2 | 16.1 | 0.00 | 0.00 | 0.00 | 83 | 1021.2 |
| 20260906151552 | 18 | 44 | 6.4 | 16.1 | 0.00 | 0.00 | 0.00 | 85 | 1021.3 |
| 20260906150100 | 18 | 36 | 3.2 | 11.3 | 0.00 | 0.00 | 0.00 | 84 | 1021.3 |
| 20260906144602 | 18 | 59 | 3.2 | 11.3 | 0.00 | 0.00 | 0.00 | 85 | 1021.4 |
| 20260906143050 | 18 | 60 | 3.2 | 11.3 | 0.00 | 0.00 | 0.00 | 84 | 1021.2 |
| 20260906141534 | 18 | 354 | 3.2 | 9.7 | 0.00 | 0.00 | 0.00 | 83 | 1021.4 |
| 20260906140021 | 19 | 20 | 3.2 | 11.3 | 0.00 | 0.00 | 0.00 | 82 | 1021.6 |
| 20260906134515 | 19 | 323 | 1.6 | 8.0 | 0.00 | 0.00 | 0.00 | 84 | 1021.5 |
| 20260906133010 | 18 | 13 | 0.0 | 3.2 | 0.00 | 0.00 | 0.00 | 85 | 1021.7 |
| 20260906131522 | 18 | 14 | 0.0 | 1.6 | 0.00 | 0.00 | 0.00 | 85 | 1021.8 |
| 20260906130007 | 18 | 3 | 0.0 | 1.6 | 0.00 | 0.00 | 0.00 | 87 | 1021.6 |
| 20260906124501 | 17 | 51 | 0.0 | 1.6 | 0.00 | 0.00 | 0.00 | 91 | 1021.2 |
| 20260906123104 | 16 | 304 | 0.0 | 0.0 | 0.00 | 0.00 | 0.00 | 93 | 1021.1 |
| 20260906121559 | 16 | 294 | 0.0 | 3.2 | 0.00 | 0.00 | 0.00 | 94 | 1021.0 |
| 20260906120104 | 15 | 310 | 0.0 | 0.0 | 0.00 | 0.00 | 0.00 | 95 | 1020.7 |
| 20260906114557 | 15 | 286 | 0.0 | 0.0 | 0.00 | 0.00 | 0.00 | 95 | 1020.7 |
| 20260906113100 | 15 | 300 | 0.0 | 1.6 | 0.00 | 0.00 | 0.00 | 96 | 1020.6 |
| 20260906111553 | 15 | 310 | 0.0 | 3.2 | 0.00 | 0.00 | 0.00 | 96 | 1020.4 |
| 20260906110051 | 15 | 310 | 1.6 | 3.2 | 0.00 | 0.00 | 0.00 | 97 | 1020.2 |
| 20260906104608 | 15 | 310 | 0.0 | 0.0 | 0.00 | 0.00 | 0.00 | 97 | 1020.0 |
| 20260906103047 | 15 | 310 | 0.0 | 0.0 | 0.00 | 0.00 | 0.00 | 97 | 1020.0 |
| 20260906101547 | 15 | 310 | 0.0 | 0.0 | 0.00 | 0.00 | 0.00 | 97 | 1020.0 |
| 20260906100046 | 15 | 310 | 0.0 | 0.0 | 0.00 | 0.00 | 0.00 | 97 | 1020.1 |
| 20260906094608 | 15 | 311 | 0.0 | 0.0 | 0.00 | 0.00 | 0.00 | 97 | 1020.1 |
| 20260906093046 | 15 | 323 | 0.0 | 0.0 | 0.00 | 0.00 | 0.00 | 97 | 1020.1 |
| 20260906091544 | 15 | 335 | 0.0 | 0.0 | 0.00 | 0.00 | 0.00 | 97 | 1019.9 |
| 20260906090038 | 15 | 335 | 0.0 | 0.0 | 0.00 | 0.00 | 0.00 | 96 | 1020.0 |
| 20260906084539 | 16 | 335 | 0.0 | 0.0 | 0.00 | 0.00 | 0.00 | 96 | 1020.0 |
| 20260906083036 | 16 | 335 | 0.0 | 0.0 | 0.00 | 0.00 | 0.00 | 95 | 1020.0 |
| 20260906081544 | 16 | 335 | 0.0 | 0.0 | 0.00 | 0.00 | 0.00 | 94 | 1020.0 |
| 20260906080030 | 16 | 335 | 0.0 | 0.0 | 0.00 | 0.00 | 0.00 | 94 | 1020.2 |
| 20260906074532 | 16 | 335 | 0.0 | 0.0 | 0.00 | 0.00 | 0.00 | 94 | 1020.3 |
| 20260906073026 | 16 | 338 | 0.0 | 0.0 | 0.00 | 0.00 | 0.00 | 94 | 1020.3 |
| 20260906071525 | 16 | 338 | 0.0 | 0.0 | 0.00 | 0.00 | 0.00 | 95 | 1020.4 |
| 20260906070023 | 16 | 340 | 0.0 | 0.0 | 0.00 | 0.00 | 0.00 | 94 | 1020.0 |
| 20260906064522 | 17 | 340 | 0.0 | 0.0 | 0.00 | 0.00 | 0.00 | 94 | 1020.0 |
| 20260906063018 | 17 | 340 | 0.0 | 0.0 | 0.00 | 0.00 | 0.00 | 93 | 1019.9 |
| 20260906061529 | 17 | 340 | 0.0 | 0.0 | 0.00 | 0.00 | 0.00 | 92 | 1020.0 |
| 20260906060015 | 17 | 340 | 0.0 | 3.2 | 0.00 | 0.00 | 0.00 | 91 | 1019.9 |
| 20260906054515 | 17 | 340 | 0.0 | 3.2 | 0.00 | 0.00 | 0.00 | 90 | 1020.1 |
| 20260906053015 | 17 | 333 | 0.0 | 0.0 | 0.00 | 0.00 | 0.00 | 90 | 1020.0 |
| 20260906051508 | 18 | 321 | 0.0 | 0.0 | 0.00 | 0.00 | 0.00 | 90 | 1020.0 |
| 20260906050005 | 18 | 330 | 0.0 | 1.6 | 0.00 | 0.00 | 0.00 | 90 | 1020.1 |
| 20260906044504 | 18 | 18 | 0.0 | 0.0 | 0.00 | 0.00 | 0.00 | 90 | 1020.3 |
| 20260906043002 | 18 | 21 | 0.0 | 0.0 | 0.00 | 0.00 | 0.00 | 90 | 1020.3 |
| 20260906041501 | 18 | 3 | 0.0 | 1.6 | 0.00 | 0.00 | 0.00 | 89 | 1020.4 |
| 20260906040004 | 18 | 353 | 0.0 | 0.0 | 0.00 | 0.00 | 0.00 | 89 | 1020.3 |
| 20260906034606 | 18 | 330 | 0.0 | 4.8 | 0.00 | 0.00 | 0.00 | 88 | 1020.3 |
| 20260906033059 | 18 | 309 | 0.0 | 3.2 | 0.00 | 0.00 | 0.00 | 87 | 1019.9 |
| 20260906031602 | 18 | 7 | 1.6 | 9.7 | 0.00 | 0.00 | 0.00 | 87 | 1019.8 |
| 20260906030056 | 18 | 77 | 0.0 | 4.8 | 0.00 | 0.00 | 0.00 | 88 | 1019.9 |
| 20260906024601 | 18 | 345 | 0.0 | 1.6 | 0.00 | 0.00 | 0.00 | 89 | 1019.7 |
| 20260906023052 | 18 | 60 | 0.0 | 3.2 | 0.00 | 0.00 | 0.00 | 89 | 1019.4 |
| 20260906021601 | 18 | 31 | 0.0 | 4.8 | 0.00 | 0.00 | 0.00 | 90 | 1019.1 |
| 20260906020057 | 18 | 326 | 0.0 | 6.4 | 0.00 | 0.00 | 0.00 | 91 | 1019.2 |
| 20260906014557 | 18 | 51 | 0.0 | 3.2 | 0.00 | 0.00 | 0.00 | 90 | 1018.9 |
| 20260906013019 | 18 | 342 | 0.0 | 1.6 | 0.00 | 0.00 | 0.00 | 91 | 1018.8 |
| 20260906011519 | 18 | 14 | 0.0 | 1.6 | 0.00 | 0.00 | 0.00 | 91 | 1018.8 |
| 20260906010016 | 18 | 308 | 0.0 | 3.2 | 0.00 | 0.00 | 0.00 | 91 | 1019.0 |
| 20260906004514 | 18 | 73 | 0.0 | 4.8 | 0.00 | 0.00 | 0.00 | 91 | 1018.7 |
| 20260906003021 | 18 | 17 | 0.0 | 4.8 | 0.00 | 0.00 | 0.00 | 91 | 1018.6 |
| 20260906001512 | 18 | 356 | 1.6 | 6.4 | 0.00 | 0.00 | 0.00 | 91 | 1018.6 |
| 20260906000042 | 18 | 360 | 1.6 | 9.7 | 0.00 | 0.00 | 0.00 | 91 | 1018.7 |
| 20260905234541 | 18 | 354 | 0.0 | 6.4 | 0.00 | 0.00 | 0.00 | 91 | 1019.1 |
| 20260905233043 | 18 | 25 | 0.0 | 11.3 | 0.00 | 0.00 | 0.00 | 91 | 1019.4 |
| 20260905231542 | 18 | 13 | 0.0 | 4.8 | 0.00 | 0.00 | 0.00 | 91 | 1019.4 |
| 20260905230038 | 18 | 325 | 0.0 | 6.4 | 0.00 | 0.00 | 0.00 | 91 | 1019.5 |
| 20260905224539 | 18 | 19 | 1.6 | 8.0 | 0.00 | 0.00 | 0.00 | 90 | 1019.4 |
| 20260905223039 | 18 | 51 | 0.0 | 3.2 | 0.00 | 0.00 | 0.00 | 90 | 1019.6 |
| 20260905221544 | 18 | 49 | 1.6 | 6.4 | 0.00 | 0.00 | 0.00 | 90 | 1019.6 |
| 20260905220034 | 18 | 359 | 0.0 | 8.0 | 0.00 | 0.00 | 0.00 | 90 | 1019.5 |
| 20260905214533 | 18 | 33 | 0.0 | 3.2 | 0.00 | 0.00 | 0.00 | 91 | 1019.8 |
| 20260905213035 | 18 | 39 | 1.6 | 8.0 | 0.00 | 0.00 | 0.00 | 92 | 1019.9 |
| 20260905211540 | 18 | 53 | 1.6 | 4.8 | 0.00 | 0.00 | 0.00 | 91 | 1020.1 |
| 20260905210028 | 18 | 106 | 1.6 | 6.4 | 0.00 | 0.00 | 0.00 | 91 | 1020.1 |
| 20260905204528 | 18 | 68 | 0.0 | 6.4 | 0.00 | 0.00 | 0.00 | 91 | 1020.3 |
| 20260905203032 | 18 | 1 | 0.0 | 8.0 | 0.00 | 0.00 | 0.00 | 91 | 1020.1 |
| 20260905201605 | 18 | 28 | 3.2 | 8.0 | 0.00 | 0.00 | 0.00 | 91 | 1020.3 |
| 20260905200123 | 18 | 47 | 0.0 | 6.4 | 0.00 | 0.00 | 0.00 | 91 | 1020.3 |
| 20260905194554 | 18 | 71 | 3.2 | 12.9 | 0.00 | 0.00 | 0.00 | 91 | 1020.2 |
| 20260905193053 | 18 | 332 | 3.2 | 9.7 | 0.00 | 0.00 | 0.00 | 90 | 1020.2 |
| 20260905191553 | 18 | 56 | 3.2 | 6.4 | 0.00 | 0.00 | 0.00 | 90 | 1020.1 |
| 20260905190052 | 18 | 293 | 1.6 | 8.0 | 0.00 | 0.00 | 0.00 | 91 | 1020.3 |
| 20260905184550 | 18 | 352 | 3.2 | 9.7 | 0.00 | 0.00 | 0.00 | 91 | 1020.3 |
| 20260905183050 | 18 | 359 | 3.2 | 11.3 | 0.00 | 0.00 | 0.00 | 92 | 1020.1 |
| 20260905181549 | 18 | 354 | 1.6 | 11.3 | 0.00 | 0.00 | 0.00 | 91 | 1020.3 |
| 20260905180046 | 18 | 40 | 3.2 | 9.7 | 0.00 | 0.00 | 0.00 | 92 | 1020.3 |
| 20260905174514 | 18 | 7 | 1.6 | 6.4 | 0.00 | 0.00 | 0.00 | 94 | 1020.4 |